Simultaneous Nadir Overpasses (SNOs) Predictions

Prediction of SNOs near US between NOAA-19 and NPP Satellite Orbit:

Table of predicted SNOs near US for the next 10.0 days since TLE Epoch: 3/24/2012
<
Index Date (NOAA-19) Time (NOAA-19) NOAA-19 Lat,Lon Date (NPP) Time (NPP) NPP Lat,Lon Distance(km) Time Diff (sec)
1 03/27/2012 18:21:34 37.59, -79.24 03/27/2012 18:25:10 37.04, -81.91 244.32 216
2 03/27/2012 20:04:14 39.59,-105.42 03/27/2012 20:07:15 39.08,-107.94 224.21 181
3 03/28/2012 06:42:48 47.64, -67.91 03/28/2012 06:42:07 47.97, -69.82 147.28 41
4 03/28/2012 08:25:30 45.55, -94.28 03/28/2012 08:24:13 45.88, -96.03 141.28 77
5 03/28/2012 10:08:10 43.56,-120.56 03/28/2012 10:06:18 43.85,-122.18 134.11 112
6 03/28/2012 18:14:25 49.99, -81.24 03/28/2012 18:09:49 49.87, -81.89 48.42 276
7 03/28/2012 19:56:30
